Volver al catálogo

STARLINK-32552

ActivoComunicacionesVLEO
NORAD 62174·PAYLOAD·🇺🇸 United States

Lanzado Nov 30, 2024 desde Vandenberg Space Force Base

Loading…

Próximos Pases (próximas 24 horas)

TLE

ActualizadoSource: CelesTrak SupGP

Época: Sep 14, 2026, 21:42 UTC

1 62174C 24225M   26257.90465278  .00044692  00000+0  37466-2 0  2577
2 62174  70.0018  47.2588 0002691 278.8470 331.6136 14.98297112    14

Sigue STARLINK-32552 en tiempo real con AllMySat

Download on the App Store